{"data":{"norad_id":51791,"intl_designator":"2022-017Z","name":"STARLINK-3602","alt_names":[],"object_type":"PAYLOAD","status":"ACTIVE","operator":null,"country":"US","launch_date":"2022-02-25","launch_site_code":"AFWTR","launch_vehicle":null,"mission":null,"orbit_class":"UNKNOWN","rcs_meters":null,"size_class":null,"mass_kg":null,"dimensions":null,"purposes":["comms"],"wikipedia_slug":null,"has_3d_model":false,"image_url":null,"decayed_at":null,"tle_current":{"epoch":"2026-05-25T00:40:05.965248Z","epoch_age_seconds":72360,"freshness":"FRESH","line1":"1 51791U 22017Z   26145.02784682 -.00000120  00000+0  10543-4 0  9990","line2":"2 51791  53.2135   6.4255 0001568  96.4997 263.6174 15.08843307235446","mean_motion":15.08843307,"eccentricity":0.0001568,"inclination_deg":53.2135,"raan_deg":6.4255,"arg_perigee_deg":96.4997,"mean_anomaly_deg":263.6174,"bstar":1.0543e-5,"rev_number":23544,"period_min":95.437345502968,"perigee_km":538.64855874652,"apogee_km":540.81800286658,"semimajor_km":6917.8702808066,"source":"CELESTRAK","updated_at":"2026-05-25T13:38:16.954680Z"}}}